Flag for Namibia Weather past 2 weeks in Swakopmund, Namibia

Now
52 °F

Cool.


Feels Like: 52 °F
Forecast: 57 / 69 °F
Wind: 2 mph from Southwest

Location: Walvis Bay

Current Time: Aug 21, 2014 at 12:20:56 AM

Latest Report: Aug 20, 2014 at 11:00 PM


Visibility: N/A

Pressure: 30.09 "Hg

Humidity: 72%

Dew point: 43 °F

Location of SwakopmundLocation

Historic Weather in Swakopmund — Graph

°F

Swakopmund temperature yesterday

Maximum temperature yesterday: 66 °F (at 12:00 PM)
Minimum temperature yesterday: 52 °F (at 11:00 PM)
Average temperature yesterday: 58 °F

Past Weeks' High & Low Weather Summary

 TemperatureHumidityPressure
High72 °F (Aug 9, 2:00 PM)100% (Aug 6, 7:00 AM)30.45 "Hg (Aug 6, 7:00 AM)
Low43 °F (Aug 6, 2:00 AM)13% (Aug 9, 10:00 AM)29.92 "Hg (Aug 16, 2:00 PM)
Average55 °F77%30.09 "Hg
* Reported Aug 5 11:00 PM — Aug 20 11:00 PM, Swakopmund, Weather by CustomWeather, © 2014

Note: Actual official high and low records may vary slightly from our data, if they occured in-between our weather recording intervals... More about our weather records

Advertising

Swakopmund weather history for previous 24 hours

 ConditionsComfort  
Time TempWeatherWind HumidityBarometerVisibility
11:00 PM
Aug 20
52 °FCool.2 mph72%30.09 "HgN/A
10:00 PM54 °FCool.7 mph67%30.09 "HgN/A
9:00 PM55 °FCool.8 mph63%30.09 "HgN/A
8:00 PM57 °FRefreshingly cool.10 mph59%30.09 "HgN/A
7:00 PM59 °FRefreshingly cool.9 mph55%30.07 "HgN/A
6:00 PM63 °FSandstorm.15 mph49%30.04 "Hg2 mi
5:00 PM63 °FSandstorm.18 mph56%30.04 "Hg2 mi
4:00 PM64 °FMild.21 mph56%30.01 "HgN/A
3:00 PM66 °FPartly sunny.18 mph52%30.01 "HgN/A
2:00 PM66 °FPartly sunny.12 mph56%30.04 "HgN/A
1:00 PM66 °FPartly sunny.10 mph56%30.07 "HgN/A
12:00 PM66 °FMild.5 mph52%30.09 "HgN/A
11:00 AM63 °FPartly sunny.3 mph64%30.12 "HgN/A
10:00 AM61 °FCool.1 mph68%30.15 "HgN/A
9:00 AM57 °FPartly sunny.1 mph82%30.15 "HgN/A
8:00 AM55 °FOvercast.2 mph82%30.15 "HgN/A
6:00 AM54 °FOvercast.2 mph94%30.12 "HgN/A
5:00 AM54 °FOvercast.1 mph88%30.12 "HgN/A
4:00 AM54 °FCool.5 mph88%30.09 "HgN/A
3:00 AM54 °FCool.2 mph88%30.12 "HgN/A
2:00 AM54 °FCool.2 mph88%30.12 "HgN/A
1:00 AM54 °FCool.1 mph88%30.12 "HgN/A
12:00 AM54 °FCool.1 mph88%30.12 "HgN/A
Weather by CustomWeather, © 2014

See weather overviewHow to use our weather pages